Retour au catalogue

CZ-3B R/B

ActifHEO
NORAD 56565·ROCKET BODY·🇨🇳 China

Lancé May 17, 2023 depuis Xichang Satellite Launch Center

Loading…

Prochains Passages (prochaines 24 heures)

TLE

FraisSource: Space-Track

Époque: Sep 14, 2026, 14:39 UTC

1 56565U 23066B   26257.61054081  .00621290 -15473-6  94270-3 0  9993
2 56565  28.1497 352.5179 4557756  15.9545 354.6608  6.61261490 50866

Suivez CZ-3B R/B en temps réel avec AllMySat

Download on the App Store